Seward, AK

6:08 PM AKST on January 17, 2018 (GMT -0900)
Seward

Weather History for PAWD - October, 2013

Change the Weather History Date:

Sunday, October 13, 2013

  Actual Average Record
Temperature  
Mean Temperature 44 °F -  
Max Temperature 48 °F 45 °F 62 °F (2016)
Min Temperature 41 °F 35 °F 23 °F (1955)
Degree Days  
Heating Degree Days 20    
Moisture  
Dew Point 42 °F    
Average Humidity 92    
Maximum Humidity 100    
Minimum Humidity 80    
Precipitation  
Precipitation 2.51 in - - ()
Sea Level Pressure  
Sea Level Pressure 29.61 in    
Wind  
Wind Speed 6 mph (SW)    
Max Wind Speed 20 mph    
Max Gust Speed 28 mph    
Visibility 7 miles    
Events Rain    
Averages and records for this station are not official NWS values.
T = Trace of Precipitation, MM = Missing Value Source: NWS Daily Summary

Daily Weather History Graph

Daily Weather History Graph

Search for Another Location

Airport or City:

Trip Planner

Search our weather history database for the weather conditions in past years. The results will help you decide how hot, cold, wet, or windy it might be!

Date:

Astronomy

Oct. 13, 2013 Rise Set
Actual Time 8:33 AM AKDT 6:52 PM AKDT
Civil Twilight 7:51 AM AKDT 7:34 PM AKDT
Nautical Twilight 7:02 AM AKDT 8:23 PM AKDT
Astronomical Twilight 6:13 AM AKDT 9:12 PM AKDT
Moon 4:59 PM AKDT (10/13) 1:35 AM AKDT (10/13)
Length of Visible Light 11h 43m
Length of Day
10h 19m
Waxing Gibbous, 71% of the Moon is Illuminated
Oct 13
Waxing Gibbous
Oct 18
Full
Oct 26
Last Quarter
Nov 3
New
Nov 9
First Quarter

Hourly Weather History & Observations

Time (AKDT) Temp. Windchill Dew Point Humidity Pressure Visibility Wind Dir Wind Speed Gust Speed Precip Events Conditions
12:53 AM 48.0 °F - 42.1 °F 80% 29.68 in 7.0 mi SSW 19.6 mph 27.6 mph 0.12 in Rain Rain
1:53 AM 46.9 °F - 41.0 °F 80% 29.66 in 5.0 mi SSW 15.0 mph 23.0 mph 0.20 in Rain Rain
2:53 AM 45.0 °F - 43.0 °F 93% 29.61 in 5.0 mi Calm Calm - 0.15 in Rain Rain
3:53 AM 45.0 °F 42.6 °F 43.0 °F 93% 29.57 in 8.0 mi Variable 4.6 mph - 0.07 in Rain Light Rain
4:53 AM 45.0 °F 40.6 °F 43.0 °F 93% 29.54 in 7.0 mi NNW 8.1 mph - 0.10 in Rain Light Rain
5:53 AM 45.0 °F - 43.0 °F 93% 29.53 in 4.0 mi Calm Calm - 0.17 in Rain Rain
6:53 AM 45.0 °F - 44.1 °F 97% 29.52 in 3.0 mi Calm Calm - 0.24 in Rain Heavy Rain
7:53 AM 46.0 °F 40.6 °F 42.1 °F 86% 29.49 in 4.0 mi NNW 11.5 mph - 0.26 in Rain Heavy Rain
8:53 AM 44.1 °F - 42.1 °F 93% 29.49 in 5.0 mi Calm Calm - 0.20 in Rain Rain
9:53 AM 42.1 °F 38.4 °F 41.0 °F 96% 29.50 in 4.0 mi NNE 5.8 mph - 0.25 in Rain Rain
10:53 AM 42.1 °F 40.2 °F 41.0 °F 96% 29.50 in 4.0 mi NNW 3.5 mph - 0.15 in Rain Rain
11:40 AM 42.8 °F - 41.0 °F 93% 29.51 in 2.5 mi Calm Calm - 0.11 in Rain Rain
11:45 AM 42.8 °F - 41.0 °F 93% 29.51 in 3.0 mi Calm Calm - 0.13 in Rain Rain
11:53 AM 41.0 °F - 39.9 °F 96% 29.52 in 5.0 mi Calm Calm - 0.14 in Rain Light Rain
12:20 PM 42.8 °F - 41.0 °F 93% 29.52 in 10.0 mi Calm Calm - 0.03 in Rain Light Rain
12:53 PM 43.0 °F - 39.9 °F 89% 29.54 in 8.0 mi Calm Calm - 0.04 in Rain Light Rain
1:00 PM 42.8 °F - 41.0 °F 93% 29.54 in 7.0 mi Calm Calm - 0.01 in Rain Light Rain
1:23 PM 44.6 °F - 42.8 °F 93% 29.54 in 10.0 mi Calm Calm - 0.02 in Rain Light Rain
1:53 PM 45.0 °F - 41.0 °F 86% 29.55 in 10.0 mi Calm Calm - 0.02 in   Overcast
2:53 PM 45.0 °F - 41.0 °F 86% 29.56 in 10.0 mi Calm Calm - N/A   Mostly Cloudy
3:09 PM 44.6 °F - 41.0 °F 87% 29.56 in 10.0 mi Calm Calm - N/A   Mostly Cloudy
3:37 PM 44.6 °F 43.1 °F 41.0 °F 87% 29.57 in 10.0 mi SSE 3.5 mph - N/A   Mostly Cloudy
3:53 PM 45.0 °F - 42.1 °F 90% 29.58 in 10.0 mi Calm Calm - N/A   Mostly Cloudy
4:53 PM 46.0 °F 42.5 °F 43.0 °F 89% 29.60 in 10.0 mi South 6.9 mph - N/A   Mostly Cloudy
5:53 PM 46.9 °F - 42.1 °F 83% 29.62 in 10.0 mi South 8.1 mph - 0.00 in   Overcast
6:53 PM 45.0 °F 43.5 °F 42.1 °F 90% 29.64 in 10.0 mi WSW 3.5 mph - 0.02 in   Mostly Cloudy
7:53 PM 45.0 °F 41.8 °F 42.1 °F 90% 29.67 in 5.0 mi South 5.8 mph 19.6 mph 0.05 in Rain Rain
8:06 PM 44.6 °F 40.2 °F 42.8 °F 93% 29.68 in 8.0 mi SSW 8.1 mph - 0.01 in Rain Light Rain
8:14 PM 44.6 °F 40.7 °F 42.8 °F 93% 29.68 in 8.0 mi SSW 6.9 mph - 0.01 in Rain Light Rain
8:24 PM 44.6 °F 42.2 °F 42.8 °F 93% 29.69 in 10.0 mi SSW 4.6 mph - 0.01 in Rain Light Rain
8:53 PM 44.1 °F - 42.1 °F 93% 29.69 in 10.0 mi Calm Calm - 0.02 in   Overcast
9:53 PM 44.1 °F - 42.1 °F 93% 29.71 in 8.0 mi Calm Calm - 0.01 in Rain Light Rain
10:02 PM 44.6 °F - 42.8 °F 93% 29.71 in 4.0 mi Calm Calm - 0.02 in Rain Rain
10:14 PM 44.6 °F 41.4 °F 42.8 °F 93% 29.72 in 2.5 mi SW 5.8 mph - 0.07 in Rain Heavy Rain
10:30 PM 44.6 °F - 42.8 °F 93% 29.73 in 4.0 mi Calm Calm - 0.13 in Rain Rain
10:46 PM 42.8 °F - 42.8 °F 100% 29.73 in 2.5 mi Calm Calm - 0.21 in Rain Heavy Rain
10:53 PM 43.0 °F - 42.1 °F 97% 29.74 in 2.5 mi Calm Calm - 0.24 in Rain Rain
11:00 PM 42.8 °F - 42.8 °F 100% 29.73 in 3.0 mi Calm Calm - 0.02 in Rain Rain
11:20 PM 42.8 °F 41.1 °F 41.0 °F 93% 29.73 in 10.0 mi NNE 3.5 mph - 0.05 in Rain Light Rain
11:53 PM 43.0 °F - 42.1 °F 97% 29.75 in 6.0 mi Calm Calm - 0.06 in Rain Light Rain